Location: Graswijk
(52.9667°N, 6.5500°E)
Time: 20:49:32
(UTC+00:00)

NOSS 3-3 (A) - Pass Details

Date: 15 May 2026
Orbit: 691 x 1518 km, 63.4° (Epoch: 11 January)

Event Time Altitude Azimuth Distance (km) Brightness Sun altitude
Rises 19:57:27 0° 210° (SSW) 3,154 6.6 -4.6°
Reaches altitude 10° 19:59:40 10° 206° (SSW) 2,296 5.8 -4.9°
Maximum altitude 20:04:48 60° 127° (SE) 976 3.8 -5.5°
Drops below altitude 10° 20:11:00 10° 50° (NE) 2,761 6.3 -6.2°
Sets 20:13:54 0° 47° (NE) 3,849 7.1 -6.5°
